Location: Bruderhein
(53.8035°N, 112.9265°W)
Time: 14:24:03
(UTC+00:00)

deb Delta 139 - Pass Details

Date: 12 December 2023
Orbit: 731 x 794 km, 98.6° (Epoch: 01 March)

Event Time Altitude Azimuth Distance (km) Brightness Sun altitude
Rises 00:55:44 0° 152° (SSE) 3,238 ? -14.3°
Reaches altitude 10° 00:58:04 10° 149° (SSE) 2,305 ? -14.6°
Maximum altitude 01:03:05 64° 69° (ENE) 843 ? -15.3°
Drops below altitude 10° 01:08:02 10° 349° (N) 2,281 ? -16.0°
Sets 01:10:20 0° 346° (NNW) 3,201 ? -16.3°
